This demonstration page uses our WeatherBlox Daily Observations layout. Learn more.

Left ArrowRight Arrow

40.92945, -100.16068

Hourly Observations for February 13, 2018

Temp ( °F °C ) Dew Point ( °F °C ) Humidity (%) Winds ( mph kmh ) Pressure ( in mb ) Visibility ( mi km ) Precip ( " mm )
12:15 am 00:15 Clear 15 -9.2 11 -11.7 82 82 ESE 10 17 30.53 1034 10 16.0934 0 0
12:35 am 00:35 Clear 15 -9.2 11 -11.6 83 83 ESE 12 19 30.53 1034 10 16.0934 0 0
12:55 am 00:55 Clear 15 -9.4 11 -11.7 84 84 ESE 13 20 30.53 1034 10 16.0934 0 0
1:15 am 01:15 Clear 15 -9.5 11 -11.7 84 84 ESE 9 15 30.5 1033 10 16.0934 0 0
1:35 am 01:35 Clear 15 -9.4 11 -11.6 84 84 ESE 10 17 30.5 1033 10 16.0934 0 0
1:55 am 01:55 Clear 15 -9.4 11 -11.6 84 84 ESE 9 15 30.5 1033 10 16.0934 0 0
2:15 am 02:15 Clear 15 -9.5 11 -11.7 84 84 SE 9 15 30.5 1033 10 16.0934 0 0
2:35 am 02:35 Clear 15 -9.7 11 -11.7 86 86 SE 9 15 30.48 1032 10 16.0934 0 0
2:55 am 02:55 Clear 14 -9.8 11 -11.8 86 86 SE 10 17 30.48 1032 10 16.0934 0 0
3:15 am 03:15 Clear 14 -10.2 10 -12.2 85 85 SE 9 15 30.48 1032 10 16.0934 0 0
3:35 am 03:35 Clear 13 -10.7 9 -12.6 86 86 SE 8 13 30.45 1031 10 16.0934 0 0
3:55 am 03:55 Clear 13 -10.5 10 -12.4 86 86 ESE 7 11 30.45 1031 10 16.0934 0 0
4:15 am 04:15 Clear 14 -10.1 11 -11.9 87 87 SE 8 13 30.45 1031 10 16.0934 0 0
4:35 am 04:35 Clear 13 -10.3 10 -12.2 86 86 SE 8 13 30.42 1030 10 16.0934 0 0
4:55 am 04:55 Clear 14 -10.1 11 -11.9 87 87 SE 7 11 30.42 1030 10 16.0934 0 0
5:15 am 05:15 Clear 14 -10 10 -12 85 85 ESE 3 6 30.45 1031 10 16.0934 0 0
5:35 am 05:35 Clear 9 -12.7 6 -14.5 87 87 ENE 3 6 30.48 1032 10 16.0934 0 0
5:55 am 05:55 Clear 9 -12.7 6 -14.4 87 87 E 6 9 30.45 1031 10 16.0934 0 0
6:15 am 06:15 Clear 10 -12.5 7 -14 89 89 ESE 7 11 30.45 1031 10 16.0934 0 0
6:35 am 06:35 Clear 16 -9.1 13 -10.5 90 90 SE 10 17 30.39 1029 10 16.0934 0 0
6:55 am 06:55 Clear 17 -8.1 14 -10 86 86 SE 9 15 30.39 1029 10 16.0934 0 0
7:15 am 07:15 Clear 18 -8 14 -10 86 86 SE 9 15 30.39 1029 10 16.0934 0 0
7:35 am 07:35 Clear 18 -7.7 15 -9.6 86 86 SE 9 15 30.36 1028 10 16.0934 0 0
7:55 am 07:55 Sunny 17 -8.3 13 -10.3 86 86 SSE 10 17 30.39 1029 10 16.0934 0 0
8:15 am 08:15 Sunny 18 -7.7 15 -9.7 86 86 S 13 20 30.36 1028 10 16.0934 0 0
8:35 am 08:35 Sunny 19 -7.3 15 -9.3 86 86 S 12 19 30.39 1029 10 16.0934 0 0
8:55 am 08:55 Sunny 23 -4.9 18 -7.6 82 82 S 12 19 30.36 1028 10 16.0934 0 0
9:15 am 09:15 Sunny 24 -4.3 19 -7.3 80 80 S 9 15 30.36 1028 10 16.0934 0 0
9:35 am 09:35 Sunny 25 -3.7 19 -7.1 78 78 S 7 11 30.36 1028 10 16.0934 0 0
9:55 am 09:55 Sunny 27 -3 19 -7 74 74 SSW 10 17 30.33 1027 10 16.0934 0 0
10:15 am 10:15 Sunny 28 -2.5 20 -6.5 74 74 S 12 19 30.3 1026 10 16.0934 0 0
10:35 am 10:35 Sunny 28 -2 21 -6.3 73 73 SSW 8 13 30.3 1026 10 16.0934 0 0
10:55 am 10:55 Sunny 28 -2 21 -6.3 73 73 SW 12 19 30.3 1026 10 16.0934 0 0
11:15 am 11:15 Sunny 29 -1.5 21 -6.1 71 71 SW 12 19 30.3 1026 10 16.0934 0 0
11:35 am 11:35 Sunny 30 -1.3 21 -6.1 70 70 WSW 9 15 30.3 1026 10 16.0934 0 0
11:55 am 11:55 Sunny 30 -1 22 -5.7 71 71 SW 10 17 30.3 1026 10 16.0934 0 0
12:15 pm 12:15 Sunny 31 -0.6 22 -5.7 69 69 SW 12 19 30.27 1025 10 16.0934 0 0
12:35 pm 12:35 Sunny 32 -0.2 22 -5.4 68 68 SW 8 13 30.27 1025 10 16.0934 0 0
12:55 pm 12:55 Sunny 32 0.1 22 -5.3 67 67 SW 10 17 30.24 1024 10 16.0934 0 0
1:15 pm 13:15 Sunny 32 0.2 22 -5.5 66 66 WSW 8 13 30.24 1024 10 16.0934 0 0
1:35 pm 13:35 Sunny 33 0.4 22 -5.4 65 65 SW 12 19 30.24 1024 10 16.0934 0 0
1:55 pm 13:55 Sunny 33 0.5 23 -5.1 66 66 SW 8 13 30.24 1024 10 16.0934 0 0
2:15 pm 14:15 Sunny 34 1 23 -5.2 64 64 SW 10 17 30.21 1023 10 16.0934 0 0
2:35 pm 14:35 Sunny 34 1 23 -4.9 65 65 WSW 7 11 30.21 1023 10 16.0934 0 0
2:55 pm 14:55 Sunny 35 1.4 24 -4.7 64 64 WSW 8 13 30.21 1023 10 16.0934 0 0
3:15 pm 15:15 Sunny 35 1.5 24 -4.5 65 65 SW 9 15 30.21 1023 10 16.0934 0 0
3:35 pm 15:35 Sunny 35 1.7 24 -4.5 64 64 SW 10 17 30.18 1022 10 16.0934 0 0
3:55 pm 15:55 Sunny 36 2 24 -4.3 63 63 SSW 7 11 30.18 1022 10 16.0934 0 0
4:15 pm 16:15 Sunny 35 1.8 25 -4 66 66 SW 7 11 30.18 1022 10 16.0934 0 0
4:35 pm 16:35 Sunny 35 1.7 25 -4 66 66 SW 7 11 30.18 1022 10 16.0934 0 0
4:55 pm 16:55 Sunny 35 1.8 24 -4.3 64 64 SW 8 13 30.18 1022 10 16.0934 0 0
5:15 pm 17:15 Sunny 34 1 25 -4.1 69 69 WSW 3 6 30.21 1023 10 16.0934 0 0
5:35 pm 17:35 Sunny 34 1 24 -4.5 67 67 WSW 6 9 30.21 1023 10 16.0934 0 0
5:55 pm 17:55 Sunny 32 0 23 -4.9 70 70 WSW 5 7 30.21 1023 10 16.0934 0 0
6:15 pm 18:15 Clear 31 -0.4 22 -5.3 70 70 SW 6 9 30.21 1023 10 16.0934 0 0
6:35 pm 18:35 Clear 31 -0.5 22 -5.3 70 70 SW 3 6 30.21 1023 10 16.0934 0 0
6:55 pm 18:55 Clear 30 -1 22 -5.6 71 71 WSW 3 6 30.21 1023 10 16.0934 0 0
7:15 pm 19:15 Clear 31 -0.7 22 -5.4 71 71 SW 5 7 30.21 1023 10 16.0934 0 0
7:35 pm 19:35 Clear 32 0 23 -5 69 69 Calm 30.21 1023 10 16.0934 0 0
7:55 pm 19:55 Clear 29 -1.6 22 -5.4 76 76 WSW 5 7 30.24 1024 10 16.0934 0 0
8:15 pm 20:15 Clear 29 -1.8 21 -5.9 74 74 W 3 6 30.24 1024 10 16.0934 0 0
8:35 pm 20:35 Clear 25 -4.1 20 -6.8 82 82 WNW 3 6 30.24 1024 10 16.0934 0 0
8:55 pm 20:55 Clear 26 -3.5 22 -5.7 85 85 W 5 7 30.24 1024 10 16.0934 0 0
9:15 pm 21:15 Clear 24 -4.4 19 -7 82 82 WSW 3 6 30.21 1023 7 11.26538 0 0
9:35 pm 21:35 Clear 23 -5.2 19 -7.1 87 87 WSW 3 6 30.24 1024 7 11.26538 0 0
9:55 pm 21:55 Clear 20 -6.7 16 -9 84 84 SW 5 7 30.24 1024 7 11.26538 0 0
10:15 pm 22:15 Clear 20 -6.6 16 -8.7 85 85 Calm 30.21 1023 7 11.26538 0 0
10:35 pm 22:35 Clear 20 -6.4 17 -8.5 85 85 Calm 30.24 1024 7 11.26538 0 0
10:55 pm 22:55 Clear 18 -7.6 14 -9.9 84 84 W 3 6 30.27 1025 7 11.26538 0 0
11:15 pm 23:15 Clear with Mist and Fog 20 -6.6 17 -8.4 87 87 Calm 30.24 1024 5 8.0467 0 0
11:35 pm 23:35 Clear with Mist and Fog 19 -7 16 -8.9 86 86 NW 7 11 30.21 1023 5 8.0467 0 0
11:55 pm 23:55 Partly Cloudy with Mist and Fog 19 -7 17 -8.6 89 89 NW 3 6 30.21 1023 5 8.0467 0 0

Powered by AerisWeather